COSMOS 1275 DEB

Satellite information

Favourite Embed

Satellite Type and Status

DEBRISIN ORBIT

Key statistics

Satellite COSMOS 1275 DEB at a glance.

Uptime

16264

Days in orbit

Revolutions

≈ 13.7

Per day

Orbit

LEO

Low Earth Orbit

Inclination

83.0

Latest

Satellite identification and parameters

Extended collection of information and parameters for COSMOS 1275 DEB.

Object identification

Identified? True

Debris? True

Object name: COSMOS 1275 DEB

International designator: 1981-053DY

Object number (NORAD): 12782

Object ID (CCSDS): 12782

Country: COMMONWEALTH OF INDEPENDENT STATES (CIS)

Current information (Y/N): Y

RCS size: SMALL

Orbital parameters

Period: 104.796 minutes

Inclination: 82.9987 deg

SMA: 7363.018 km

Apoapsis: 1041.721 km

Periapsis: 928.046 km

RAAN: 244.2075 deg

Eccentricy: 0.00771932

Argument of periapsis: 27.1858 deg

Mean anomaly: 1.5296 deg

Mean motion: 13.74101961 rev/day

Mean motion (dot): 0.00000826 rev/day2

B* drag term: 0.00084431941 1/REarth

Two-line elements (TLE)

Creation date: Dec. 13, 2025, 4:32 a.m.

Reference frame: TEME

Reference center: EARTH

Epoch: Dec. 12, 2025, 5:18 p.m. UTC

TLE line 0: 0 COSMOS 1275 DEB

TLE line 1: 1 12782U 81053DY 25346.72093486 .00000826 00000-0 84432-3 0 9996

TLE line 2: 2 12782 82.9987 244.2075 0077193 27.1858 1.5296 13.74101961207697

Live tracking on map

Real-time ground track for satellite COSMOS 1275 DEB.

In-orbit conjunctions

A list of the most updated potential collisions computed for object COSMOS 1275 DEB.

Target Orbit TCA Probability of collision Miss distance Type
CZ-6A DEB LEO 2024-12-23 12:43:05 0.002294489 65.0 (m) DEBRIS
FREGAT R/B HEO 2024-06-07 19:03:46 0.0001022671 226.0 (m) ROCKET BODY

Associated space launch

Navigation satellite providing location information for the Tsiklon-B navigation system

COSMOS 1275 DEB was lifted into orbit during the mission ‘Kosmos-3M | Parus 27’, on board a Kosmos-3M space rocket.

The launch took place on June 4, 1981, 3:41 p.m. from 132/2.

For more information about the launch, click the button.

Launch to space Kosmos-3M | Parus 27
Kosmos-3M | Parus 27

Agency: N/A

Status: Launch Successful

Launch date: June 4, 1981, 3:41 p.m. UTC

Rocket: Kosmos-3M

Launch pad: 132/2

Location: Plesetsk Cosmodrome, Russian Federation

...

Latest news about this satellite

There are no fresh news available about this satellite. Check back as we update our databases every day.


Newsletter sign-up

Weekly statistics, charts and insights to help you stay on top of the space industry.